When you browse on this site, cookies collect data to enhance your experience and personalize the content and advertising you see.
Visit our Privacy Policy to learn more. By continuing to use the site, you agree to this use of cookies and data.
  • En España
  • Lista de países
  • Para 7 días
  • Temperatura del agua
  • El tiempo en el mapa
  • Informadores
  • user-avatar
    Iniciar sesión

    Tiempo cada hora Podberezovo

    Hoy, 12 Noviembre, Martes

    Tiempo Temperatura Precipitaciones Viento Presión Humedad
    00:00 +7°C° 0 mm 5 mps 744 mmHg 88%
    01:00 +7°C° 0 mm 5 mps 744 mmHg 87%
    02:00 +8°C° 0 mm 5 mps 745 mmHg 86%
    03:00 +7°C° 0 mm 5 mps 745 mmHg 86%
    04:00 +7°C° 0 mm 5 mps 746 mmHg 86%
    05:00 +6°C° 0 mm 5 mps 746 mmHg 87%
    06:00 +6°C° 0 mm 4 mps 747 mmHg 88%
    07:00 +6°C° 0 mm 4 mps 747 mmHg 89%
    08:00 +5°C° 0 mm 4 mps 748 mmHg 91%
    09:00 +6°C° 0 mm 4 mps 748 mmHg 86%
    10:00 +6°C° 0 mm 4 mps 749 mmHg 81%
    11:00 +6°C° 0 mm 4 mps 749 mmHg 76%
    12:00 +6°C° 0 mm 4 mps 750 mmHg 75%
    13:00 +7°C° 0 mm 3 mps 750 mmHg 74%
    14:00 +8°C° 0 mm 3 mps 751 mmHg 73%
    15:00 +7°C° 0 mm 2 mps 751 mmHg 77%
    16:00 +6°C° 0 mm 2 mps 751 mmHg 81%
    17:00 +6°C° 0 mm 1 mps 751 mmHg 85%
    18:00 +5°C° 0 mm 1 mps 752 mmHg 86%
    19:00 +5°C° 0 mm 1 mps 752 mmHg 87%
    20:00 +5°C° 0 mm 1 mps 753 mmHg 88%
    21:00 +4°C° 0 mm 1 mps 753 mmHg 88%
    22:00 +4°C° 0 mm 1 mps 753 mmHg 89%
    23:00 +4°C° 0 mm 1 mps 753 mmHg 89%

    Mañana, 13 Noviembre, Miércoles

    Tiempo Temperatura Precipitaciones Viento Presión Humedad
    00:00 +3°C° 0 mm 2 mps 753 mmHg 89%
    01:00 +3°C° 0 mm 2 mps 754 mmHg 89%
    02:00 +3°C° 0 mm 2 mps 754 mmHg 89%
    03:00 +2°C° 0 mm 2 mps 754 mmHg 90%
    04:00 +1°C° 0 mm 3 mps 754 mmHg 90%
    05:00 +1°C° 0 mm 3 mps 753 mmHg 90%
    06:00 +1°C° 0 mm 3 mps 754 mmHg 90%
    07:00 +1°C° 0 mm 3 mps 754 mmHg 89%
    08:00 0°C° 0 mm 4 mps 754 mmHg 89%
    09:00 +3°C° 0 mm 4 mps 754 mmHg 84%
    10:00 +4°C° 0 mm 4 mps 754 mmHg 79%
    11:00 +5°C° 0 mm 5 mps 754 mmHg 74%
    12:00 +5°C° 0 mm 5 mps 754 mmHg 73%
    13:00 +5°C° 0 mm 5 mps 754 mmHg 72%
    14:00 +6°C° 0 mm 4 mps 754 mmHg 71%
    15:00 +5°C° 0 mm 4 mps 754 mmHg 75%
    16:00 +3°C° 0 mm 5 mps 753 mmHg 79%
    17:00 +2°C° 0 mm 5 mps 753 mmHg 82%
    18:00 +2°C° 0 mm 5 mps 753 mmHg 83%
    19:00 +2°C° 0 mm 5 mps 753 mmHg 83%
    20:00 +2°C° 0 mm 5 mps 754 mmHg 83%
    21:00 +1°C° 0 mm 4 mps 754 mmHg 84%
    22:00 +1°C° 0 mm 4 mps 753 mmHg 84%
    23:00 +1°C° 0 mm 4 mps 753 mmHg 84%

    Pasado mañana, 14 Noviembre, Jueves

    Tiempo Temperatura Precipitaciones Viento Presión Humedad
    00:00 +1°C° 0 mm 4 mps 754 mmHg 84%
    01:00 +1°C° 0 mm 5 mps 754 mmHg 83%
    02:00 0°C° 0 mm 5 mps 754 mmHg 83%
    03:00 0°C° 0 mm 5 mps 753 mmHg 82%
    04:00 0°C° 0 mm 5 mps 753 mmHg 81%
    05:00 0°C° 0 mm 5 mps 753 mmHg 81%
    06:00 0°C° 0 mm 5 mps 753 mmHg 80%
    07:00 0°C° 0 mm 5 mps 753 mmHg 79%
    08:00 0°C° 0 mm 5 mps 754 mmHg 78%
    09:00 +1°C° 0 mm 5 mps 754 mmHg 73%
    10:00 +2°C° 0 mm 5 mps 754 mmHg 68%
    11:00 +3°C° 0 mm 5 mps 754 mmHg 63%
    12:00 +5°C° 0 mm 5 mps 754 mmHg 62%
    13:00 +5°C° 0 mm 5 mps 754 mmHg 61%
    14:00 +5°C° 0 mm 5 mps 754 mmHg 61%
    15:00 +5°C° 0 mm 5 mps 754 mmHg 65%
    16:00 +3°C° 0 mm 5 mps 754 mmHg 70%
    17:00 +2°C° 0 mm 5 mps 753 mmHg 74%
    18:00 +2°C° 0 mm 5 mps 754 mmHg 75%
    19:00 +1°C° 0 mm 5 mps 754 mmHg 76%
    20:00 +1°C° 0 mm 5 mps 754 mmHg 77%
    21:00 +1°C° 0 mm 5 mps 754 mmHg 78%
    22:00 +1°C° 0 mm 5 mps 754 mmHg 78%
    23:00 +1°C° 0 mm 5 mps 754 mmHg 79%

    15 Noviembre, Viernes

    Tiempo Temperatura Precipitaciones Viento Presión Humedad
    00:00 +1°C° 0 mm 5 mps 754 mmHg 79%
    01:00 +1°C° 0 mm 5 mps 754 mmHg 80%
    02:00 0°C° 0 mm 5 mps 754 mmHg 80%
    03:00 0°C° 0 mm 5 mps 754 mmHg 81%
    04:00 0°C° 0 mm 5 mps 754 mmHg 82%
    05:00 0°C° 0 mm 5 mps 754 mmHg 83%
    06:00 0°C° 0 mm 5 mps 754 mmHg 82%
    07:00 0°C° 0 mm 5 mps 754 mmHg 82%
    08:00 -1°C° 0 mm 6 mps 754 mmHg 81%
    09:00 +1°C° 0 mm 6 mps 754 mmHg 77%
    10:00 +2°C° 0 mm 6 mps 754 mmHg 72%
    11:00 +3°C° 0 mm 6 mps 754 mmHg 68%
    12:00 +4°C° 0 mm 6 mps 754 mmHg 67%
    13:00 +4°C° 0 mm 6 mps 754 mmHg 66%
    14:00 +4°C° 0 mm 6 mps 754 mmHg 65%
    15:00 +3°C° 0 mm 5 mps 754 mmHg 68%
    16:00 +3°C° 0 mm 5 mps 754 mmHg 72%
    17:00 +2°C° 0 mm 5 mps 753 mmHg 75%
    18:00 +2°C° 0 mm 5 mps 754 mmHg 76%
    19:00 +2°C° 0 mm 5 mps 754 mmHg 76%
    20:00 +2°C° 0 mm 5 mps 754 mmHg 77%
    21:00 +1°C° 0 mm 5 mps 754 mmHg 78%
    22:00 +1°C° 0 mm 4 mps 754 mmHg 79%
    23:00 +1°C° 0 mm 4 mps 754 mmHg 80%

    16 Noviembre, Sábado

    Tiempo Temperatura Precipitaciones Viento Presión Humedad
    00:00 +1°C° 0 mm 4 mps 754 mmHg 81%
    01:00 0°C° 0 mm 4 mps 754 mmHg 82%
    02:00 0°C° 0 mm 4 mps 754 mmHg 83%
    03:00 0°C° 0 mm 4 mps 754 mmHg 85%
    04:00 0°C° 0 mm 4 mps 754 mmHg 86%
    05:00 -1°C° 0 mm 4 mps 754 mmHg 88%
    06:00 -1°C° 0 mm 4 mps 754 mmHg 88%
    07:00 -1°C° 0 mm 4 mps 754 mmHg 89%
    08:00 -1°C° 0 mm 4 mps 754 mmHg 90%
    09:00 0°C° 0 mm 4 mps 754 mmHg 86%
    10:00 +1°C° 0 mm 4 mps 755 mmHg 82%
    11:00 +2°C° 0 mm 5 mps 755 mmHg 79%
    12:00 +3°C° 0 mm 4 mps 755 mmHg 78%
    13:00 +3°C° 0 mm 4 mps 754 mmHg 76%
    14:00 +4°C° 0 mm 3 mps 754 mmHg 75%
    15:00 +3°C° 0 mm 3 mps 754 mmHg 78%
    16:00 +2°C° 0 mm 3 mps 754 mmHg 81%
    17:00 +2°C° 0 mm 3 mps 754 mmHg 84%
    18:00 +1°C° 0 mm 3 mps 754 mmHg 84%
    19:00 +1°C° 0 mm 3 mps 755 mmHg 84%
    20:00 +1°C° 0 mm 3 mps 755 mmHg 84%
    21:00 0°C° 0 mm 3 mps 755 mmHg 84%
    22:00 0°C° 0 mm 3 mps 755 mmHg 84%
    23:00 0°C° 0 mm 3 mps 755 mmHg 84%

    17 Noviembre, Domingo

    Tiempo Temperatura Precipitaciones Viento Presión Humedad
    00:00 0°C° 0 mm 3 mps 755 mmHg 85%
    01:00 0°C° 0 mm 3 mps 755 mmHg 85%
    02:00 +1°C° 0 mm 2 mps 755 mmHg 86%
    03:00 -1°C° 0 mm 2 mps 755 mmHg 87%
    04:00 -1°C° 0 mm 2 mps 755 mmHg 88%
    05:00 -1°C° 0 mm 2 mps 755 mmHg 88%
    06:00 -1°C° 0 mm 2 mps 756 mmHg 88%
    07:00 +1°C° 0 mm 2 mps 756 mmHg 88%
    08:00 +1°C° 0 mm 2 mps 756 mmHg 88%
    09:00 +2°C° 0 mm 2 mps 756 mmHg 85%
    10:00 +2°C° 0 mm 3 mps 756 mmHg 82%
    11:00 +2°C° 0 mm 3 mps 756 mmHg 79%
    12:00 +4°C° 0 mm 2 mps 756 mmHg 80%
    13:00 +4°C° 0 mm 2 mps 755 mmHg 81%
    14:00 +5°C° 0 mm 1 mps 755 mmHg 81%
    15:00 +3°C° 0 mm 2 mps 755 mmHg 84%
    16:00 +2°C° 0 mm 2 mps 755 mmHg 87%
    17:00 +1°C° 0 mm 2 mps 755 mmHg 89%
    18:00 +1°C° 0 mm 2 mps 755 mmHg 89%
    19:00 +1°C° 0 mm 2 mps 755 mmHg 89%
    20:00 +1°C° 0 mm 2 mps 755 mmHg 90%
    21:00 +1°C° 0 mm 2 mps 755 mmHg 90%
    22:00 +1°C° 0 mm 2 mps 755 mmHg 90%
    23:00 +1°C° 0 mm 2 mps 755 mmHg 91%
    Mostrar más